Location: ???????
(54.9567°N, 38.2836°E)
Time: 01:51:03
(UTC+00:00)

H-2A R/B - Pass Details

Date: 14 April 2024
Orbit: 732 x 833 km, 98.2° (Epoch: 18 May)

Event Time Altitude Azimuth Distance (km) Brightness Sun altitude
Rises 01:19:46 0° 20° (NNE) 3,185 6.1 -9.4°
Reaches altitude 10° 01:22:15 10° 30° (NNE) 2,266 5.5 -9.1°
Maximum altitude 01:26:46 34° 95° (E) 1,231 3.7 -8.5°
Drops below altitude 10° 01:31:20 10° 160° (SSE) 2,298 4.4 -8.0°
Sets 01:33:52 0° 170° (S) 3,236 5.0 -7.6°
